{"data":{"norad_id":60906,"epoch":"2026-05-25T02:38:25.050624Z","epoch_age_seconds":61945,"freshness":"FRESH","line1":"1 60906U 24154D   26145.11001216 -.00000008  00000+0  47987-5 0  9995","line2":"2 60906  53.1597 114.7928 0001183  88.4077 271.7077 15.69700535100511","mean_motion":15.69700535,"eccentricity":0.0001183,"inclination_deg":53.1597,"raan_deg":114.7928,"arg_perigee_deg":88.4077,"mean_anomaly_deg":271.7077,"bstar":4.7987e-6,"rev_number":10051,"period_min":91.737243371711,"perigee_km":358.956743277,"apogee_km":360.55092824874,"semimajor_km":6737.8908357629,"source":"CELESTRAK","updated_at":"2026-05-25T13:38:19.312573Z"}}